Voltar ao catálogo

STARLINK-6081

AtivoComunicaçõesVLEO
NORAD 56108·PAYLOAD·🇺🇸 United States

Lançado Mar 29, 2023 de Cape Canaveral Space Force Station

Loading…

Próximas Passagens (próximas 24 horas)

TLE

AtualizadoSource: CelesTrak SupGP

Época: Sep 14, 2026, 20:59 UTC

1 56108C 23046R   26257.87479167 -.00024578  00000+0 -89028-3 0  2570
2 56108  42.9994 173.0627 0000938 251.4101 182.5246 15.27589113    10

Acompanhe STARLINK-6081 em tempo real com AllMySat

Download on the App Store